Find Starlink 33768

NORAD ID: 63454 Int'l Des: 2025-069 Owner: SPXS Country: US Constellation: starlink operational
LEOCIRCULAR

Live-Position

3D-Globus wird geladen...

Über Starlink 33768

Beschreibung wird geladen...

Nächste Überflüge

Passes for default location (London). Set your location on the main map for personalized predictions.

Höhenverlauf

Loading altitude history...

Zweizeiliger Elementsatz

1 63454U 25069X 26103.94724742 .00012777 00000-0 44270-3 0 9999
2 63454 53.1580 338.6307 0001839 72.8332 287.2870 15.30206568 58803
Epoch: 13. Apr. 2026 • Age: 28 hours

Aktueller Status

Höhe 492.8 km
Geschwindigkeit 7.62 km/s
Subsatellitenpunkt -47.90°S, 31.35°W
Startdatum 4. Apr. 2025
Alter 1 years
Typ internet

Technische Details

Klassifizierung Payload
Masse 575.00 kg
Trockenmasse 530.00 kg
Gesamtmasse 575.00 kg
Länge 0.30 m
Durchmesser 4.10 m
Spannweite 29.00 m
Form Box + pan
Hersteller SPXS
Bus-Typ Starlink V2MO
Phasenstatus In Orbit
Besitzer/Staat SPXS/US

Most Searched